Weather History for Madisonville, KY

Change the Weather History Date:

Monday, February 18, 2013

  Actual Average (KOWB) Record (KOWB)
Temperature  
Mean Temperature 51 °F -  
Max Temperature 64 °F 50 °F 73 °F (1961)
Min Temperature 38 °F 28 °F -2 °F (1958)
Degree Days  
Heating Degree Days 14    
Growing Degree Days 1 (Base 50)    
Moisture  
Dew Point 36 °F    
Average Humidity 61    
Maximum Humidity 95    
Minimum Humidity 32    
Precipitation  
Precipitation 0.52 in - - ()
Sea Level Pressure  
Sea Level Pressure 29.94 in    
Wind  
Wind Speed 14 mph (SSW)    
Max Wind Speed 34 mph    
Max Gust Speed 45 mph    
Visibility 10 miles    
Events Rain    
Averages and records for this station are not official NWS values.
T = Trace of Precipitation, MM = Missing Value Source: NWS Daily Summary

Daily Weather History Graph

Daily Weather History Graph

Search for Another Location

Airport:

Trip Planner

Search our weather history database for the weather conditions in past years. The results will help you decide how hot, cold, wet, or windy it might be!

Date:

Astronomy

Feb. 18, 2013 Rise Set
Actual Time 6:34 AM CST 5:32 PM CST
Civil Twilight 6:08 AM CST 5:59 PM CST
Nautical Twilight 5:37 AM CST 6:29 PM CST
Astronomical Twilight 5:07 AM CST 6:59 PM CST
Moon 11:21 AM CST (2/18) 1:10 AM CST (2/18)
Length of Visible Light 11h 51m
Length of Day
10h 57m
First Quarter, 58% of the Moon is Illuminated
Feb 18
First Quarter
Feb 25
Full
Mar 4
Last Quarter
Mar 11
New
Mar 19
First Quarter

Hourly Weather History & Observations

Time (CST) Temp. Windchill Dew Point Humidity Pressure Visibility Wind Dir Wind Speed Gust Speed Precip Events Conditions
12:15 AM 39.2 °F 33.0 °F 22.3 °F 51% 30.11 in 10.0 mi South 9.2 mph - N/A   Clear
12:35 AM 39.4 °F 32.7 °F 22.5 °F 51% 30.10 in 10.0 mi South 10.4 mph - N/A   Clear
12:55 AM 39.2 °F 33.0 °F 22.8 °F 52% 30.09 in 10.0 mi South 9.2 mph - N/A   Clear
1:15 AM 39.4 °F 33.8 °F 22.5 °F 51% 30.09 in 10.0 mi South 8.1 mph - N/A   Clear
1:35 AM 39.4 °F 33.2 °F 22.8 °F 52% 30.09 in 10.0 mi South 9.2 mph - N/A   Clear
1:55 AM 39.6 °F 33.0 °F 23.0 °F 52% 30.08 in 10.0 mi South 10.4 mph - N/A   Clear
2:15 AM 39.0 °F 33.4 °F 23.5 °F 54% 30.08 in 10.0 mi South 8.1 mph - N/A   Clear
2:35 AM 39.6 °F 33.5 °F 23.7 °F 53% 30.07 in 10.0 mi South 9.2 mph - N/A   Clear
2:55 AM 39.2 °F 33.6 °F 23.9 °F 54% 30.07 in 10.0 mi South 8.1 mph - N/A   Clear
3:15 AM 39.4 °F 33.2 °F 23.9 °F 54% 30.06 in 10.0 mi South 9.2 mph - N/A   Clear
3:35 AM 38.8 °F 33.2 °F 24.3 °F 56% 30.06 in 10.0 mi South 8.1 mph - N/A   Clear
3:55 AM 39.0 °F 32.8 °F 24.8 °F 57% 30.06 in 10.0 mi South 9.2 mph - N/A   Clear
4:15 AM 39.2 °F 33.0 °F 25.2 °F 57% 30.06 in 10.0 mi South 9.2 mph - N/A   Clear
4:35 AM 39.9 °F 33.9 °F 25.7 °F 57% 30.06 in 10.0 mi South 9.2 mph - N/A   Clear
4:55 AM 40.5 °F 34.1 °F 26.2 °F 57% 30.06 in 10.0 mi SSW 10.4 mph - N/A   Clear
5:15 AM 40.8 °F 34.5 °F 26.6 °F 57% 30.06 in 10.0 mi SSW 10.4 mph - N/A   Clear
5:35 AM 40.8 °F 35.0 °F 27.3 °F 59% 30.06 in 10.0 mi South 9.2 mph - N/A   Clear
5:55 AM 40.8 °F 34.1 °F 27.9 °F 60% 30.06 in 10.0 mi SSW 11.5 mph 17.3 mph N/A   Clear
6:15 AM 41.5 °F 33.8 °F 28.4 °F 60% 30.06 in 10.0 mi SSW 15.0 mph 19.6 mph N/A   Clear
6:35 AM 42.1 °F 35.2 °F 29.3 °F 61% 30.06 in 10.0 mi SSW 12.7 mph - N/A   Clear
6:55 AM 42.3 °F 35.5 °F 30.2 °F 62% 30.06 in 10.0 mi SSW 12.7 mph 20.7 mph N/A   Clear
7:15 AM 43.3 °F 36.5 °F 31.1 °F 62% 30.06 in 10.0 mi SSW 13.8 mph 19.6 mph N/A   Clear
7:35 AM 44.6 °F 37.8 °F 32.0 °F 61% 30.06 in 10.0 mi South 15.0 mph - N/A   Clear
7:55 AM 45.5 °F 38.9 °F 32.5 °F 61% 30.06 in 10.0 mi South 15.0 mph 19.6 mph N/A   Clear
8:15 AM 47.3 °F - 34.7 °F 62% 30.06 in 10.0 mi SSW 16.1 mph 20.7 mph N/A   Clear
8:35 AM 48.4 °F - 35.4 °F 61% 30.06 in 10.0 mi SSW 17.3 mph 24.2 mph N/A   Clear
8:55 AM 50.7 °F - 37.6 °F 61% 30.05 in 10.0 mi SSW 19.6 mph 28.8 mph N/A   Clear
9:15 AM 51.3 °F - 38.3 °F 61% 30.05 in 10.0 mi SSW 20.7 mph 26.5 mph N/A   Clear
9:35 AM 52.2 °F - 38.8 °F 60% 30.05 in 10.0 mi SW 17.3 mph 27.6 mph N/A   Clear
9:55 AM 54.7 °F - 40.1 °F 58% 30.04 in 10.0 mi SSW 19.6 mph 27.6 mph N/A   Clear
10:15 AM 56.3 °F - 40.3 °F 55% 30.03 in 10.0 mi SW 21.9 mph 31.1 mph N/A   Clear
10:35 AM 58.6 °F - 38.8 °F 48% 30.02 in 10.0 mi SSW 21.9 mph 34.5 mph N/A   Clear
10:55 AM 59.7 °F - 37.9 °F 44% 30.01 in 10.0 mi SSW 23.0 mph 29.9 mph N/A   Clear
11:15 AM 60.1 °F - 35.1 °F 39% 30.00 in 10.0 mi SW 23.0 mph 35.7 mph N/A   Clear
11:35 AM 61.5 °F - 34.9 °F 37% 29.99 in 10.0 mi SW 23.0 mph 32.2 mph N/A   Clear
11:55 AM 61.2 °F - 34.3 °F 37% 29.98 in 10.0 mi SW 25.3 mph 38.0 mph N/A   Clear
12:15 PM 62.2 °F - 35.1 °F 36% 29.97 in 10.0 mi SSW 19.6 mph 27.6 mph N/A   Clear
12:35 PM 63.7 °F - 35.6 °F 35% 29.97 in 10.0 mi SW 18.4 mph 29.9 mph N/A   Mostly Cloudy
12:55 PM 62.8 °F - 33.8 °F 34% 29.95 in 10.0 mi SSW 25.3 mph 38.0 mph N/A   Mostly Cloudy
1:15 PM 62.6 °F - 33.3 °F 33% 29.93 in 10.0 mi SW 26.5 mph 39.1 mph N/A   Mostly Cloudy
1:35 PM 64.2 °F - 34.0 °F 32% 29.91 in 10.0 mi SSW 19.6 mph 34.5 mph N/A   Scattered Clouds
1:55 PM 63.3 °F - 33.1 °F 32% 29.90 in 10.0 mi SW 31.1 mph 42.6 mph N/A   Scattered Clouds
2:15 PM 62.6 °F - 33.6 °F 34% 29.89 in 10.0 mi SW 28.8 mph 41.4 mph N/A   Mostly Cloudy
2:35 PM 62.1 °F - 34.0 °F 35% 29.88 in 10.0 mi SW 26.5 mph 36.8 mph N/A   Overcast
2:55 PM 61.7 °F - 34.3 °F 36% 29.88 in 10.0 mi SSW 20.7 mph 28.8 mph N/A   Overcast
3:15 PM 62.4 °F - 34.7 °F 36% 29.87 in 10.0 mi SSW 24.2 mph 38.0 mph N/A   Overcast
3:35 PM 61.7 °F - 34.9 °F 37% 29.86 in 10.0 mi SW 20.7 mph 33.4 mph N/A   Overcast
3:55 PM 61.2 °F - 35.4 °F 38% 29.85 in 10.0 mi SSW 20.7 mph 28.8 mph N/A   Overcast
4:15 PM 59.2 °F - 39.0 °F 47% 29.86 in 10.0 mi SW 27.6 mph 40.3 mph N/A Rain Light Rain
4:35 PM 55.6 °F - 43.0 °F 63% 29.86 in 7.0 mi SW 34.5 mph 44.9 mph 0.01 in Rain Rain
4:55 PM 54.9 °F - 44.4 °F 68% 29.87 in 5.0 mi SSW 29.9 mph 43.7 mph 0.04 in Rain Rain
5:15 PM 52.9 °F - 45.7 °F 77% 29.84 in 7.0 mi SSW 19.6 mph 29.9 mph 0.03 in Rain Light Rain
5:35 PM 52.2 °F - 46.4 °F 81% 29.82 in 10.0 mi South 12.7 mph - 0.06 in Rain Light Rain
5:55 PM 52.3 °F - 46.4 °F 80% 29.81 in 10.0 mi South 11.5 mph 20.7 mph 0.08 in Rain Rain
6:15 PM 52.0 °F - 46.4 °F 81% 29.79 in 10.0 mi South 12.7 mph - N/A Rain Light Rain
6:35 PM 52.9 °F - 45.5 °F 76% 29.78 in 10.0 mi South 15.0 mph 21.9 mph N/A Rain Rain
6:55 PM 52.0 °F - 46.0 °F 80% 29.77 in 10.0 mi South 12.7 mph 20.7 mph 0.01 in Rain Light Rain
7:15 PM 52.2 °F - 46.0 °F 80% 29.79 in 10.0 mi SSW 15.0 mph 24.2 mph 0.02 in Rain Rain
7:35 PM 51.3 °F - 46.6 °F 84% 29.78 in 10.0 mi South 15.0 mph 26.5 mph 0.08 in Rain Rain
7:55 PM 51.1 °F - 46.8 °F 85% 29.78 in 10.0 mi South 13.8 mph 23.0 mph 0.09 in Rain Light Rain
8:15 PM 50.4 °F - 47.1 °F 89% 29.76 in 7.0 mi South 18.4 mph 24.2 mph 0.03 in Rain Rain
8:35 PM 50.4 °F - 47.1 °F 89% 29.75 in 10.0 mi South 15.0 mph 29.9 mph 0.06 in Rain Light Rain
8:55 PM 50.2 °F - 47.1 °F 89% 29.76 in 7.0 mi South 16.1 mph 24.2 mph 0.07 in Rain Rain
9:15 PM 50.0 °F - 47.3 °F 90% 29.78 in 4.0 mi SSW 15.0 mph 23.0 mph 0.09 in Rain Heavy Rain
9:35 PM 49.5 °F - 47.7 °F 94% 29.80 in 7.0 mi SW 15.0 mph - 0.13 in Rain Rain
9:55 PM 49.5 °F - 48.2 °F 95% 29.81 in 7.0 mi SSW 13.8 mph 25.3 mph 0.20 in Rain Rain
10:15 PM 49.5 °F - 48.2 °F 95% 29.75 in 10.0 mi South 18.4 mph - 0.02 in Rain Light Rain
10:35 PM 49.6 °F - 48.2 °F 95% 29.75 in 10.0 mi South 17.3 mph 23.0 mph 0.02 in Rain Light Rain
10:55 PM 50.0 °F - 47.8 °F 92% 29.76 in 10.0 mi SSW 12.7 mph 19.6 mph 0.02 in   Overcast
11:15 PM 50.0 °F - 48.2 °F 94% 29.76 in 10.0 mi SSW 15.0 mph - N/A   Light Drizzle
11:35 PM 50.2 °F - 48.0 °F 92% 29.78 in 10.0 mi SW 16.1 mph 21.9 mph N/A Rain Rain
11:55 PM 50.0 °F - 48.2 °F 94% 29.78 in 7.0 mi SW 15.0 mph 23.0 mph 0.01 in Rain Light Rain